This is the latest recevied weather packets stored in our database for station/object VU3IZK-13. If no packets are shown the sender has not sent any weather packets the latest 10 day(s).
| Time | Temp. | Humidity | Pressure | Rain* | Wind** | Luminosity | Snow |
|---|---|---|---|---|---|---|---|
| 1777472123 | 27.78° C | 65% | 0 hPa | 0 mm | - | - | - |
| 1777471241 | 28.33° C | 63% | 0 hPa | 0 mm | - | - | - |
| 1777470320 | 28.89° C | 61% | 0 hPa | 0 mm | - | - | - |
| 1777469420 | 28.89° C | 59% | 0 hPa | 0 mm | - | - | - |
| 1777468544 | 29.44° C | 57% | 0 hPa | 0 mm | - | - | - |
| 1777467644 | 30° C | 56% | 0 hPa | 0 mm | - | - | - |
| 1777466721 | 30.56° C | 55% | 0 hPa | 0 mm | - | - | - |
| 1777465819 | 31.67° C | 54% | 0 hPa | 0 mm | - | - | - |
| 1777464940 | 31.67° C | 52% | 0 hPa | 0 mm | - | - | - |
| 1777464021 | 32.22° C | 50% | 0 hPa | 0 mm | - | - | - |
| 1777463122 | 32.78° C | 50% | 0 hPa | 0 mm | - | - | - |
| 1777462222 | 33.33° C | 50% | 0 hPa | 0 mm | - | - | - |
| 1777461343 | 33.89° C | 47% | 0 hPa | 0 mm | - | - | - |
| 1777460421 | 33.89° C | 47% | 0 hPa | 0 mm | - | - | - |
| 1777459519 | 34.44° C | 44% | 0 hPa | 0 mm | - | - | - |
| 1777458642 | 34.44° C | 44% | 0 hPa | 0 mm | - | - | - |
| 1777457743 | 35° C | 36% | 0 hPa | 0 mm | - | - | - |
| 1777456822 | 35.56° C | 35% | 0 hPa | 0 mm | - | - | - |
| 1777455921 | 35.56° C | 35% | 0 hPa | 0 mm | - | - | - |
| 1777455045 | 36.11° C | 34% | 0 hPa | 0 mm | - | - | - |
| 1777454145 | 35.56° C | 38% | 0 hPa | 0 mm | - | - | - |
| 1777453224 | 35.56° C | 34% | 0 hPa | 0 mm | - | - | - |
| 1777452304 | 35.56° C | 34% | 0 hPa | 0 mm | - | - | - |
| 1777451405 | 35° C | 37% | 0 hPa | 0 mm | - | - | - |
| 1777450505 | 35° C | 29% | 0 hPa | 0 mm | - | - | - |
* Rain latest hour (hover to see other rain measurements)
** Current wind speed in m/s (hover to see current wind gust speed)